Weather History for Rock Springs, WY

Change the Weather History Date:

Thursday, March 7, 2013

  Actual Average Record
Temperature  
Mean Temperature 39 °F 31 °F  
Max Temperature 49 °F 41 °F 58 °F (1970)
Min Temperature 28 °F 21 °F -5 °F (1964)
Degree Days  
Heating Degree Days 26 34  
Month to date heating degree days 213 248  
Since 1 July heating degree days 5694 6100  
Cooling Degree Days 0 0  
Month to date cooling degree days 0 0  
Year to date cooling degree days 0 0  
Moisture  
Dew Point 21 °F    
Average Humidity 54    
Maximum Humidity 82    
Minimum Humidity 26    
Precipitation  
Precipitation 0.00 in 0.02 in 1.66 in (1962)
Month to date precipitation T 0.12  
Year to date precipitation T 1.05  
Sea Level Pressure  
Sea Level Pressure 29.93 in    
Wind  
Wind Speed 6 mph (West)    
Max Wind Speed 18 mph    
Max Gust Speed 22 mph    
Visibility 10 miles    
Events      
T = Trace of Precipitation, MM = Missing Value Source: NWS Daily Summary

Daily Weather History Graph

Daily Weather History Graph

Search for Another Location

Airport:

Trip Planner

Search our weather history database for the weather conditions in past years. The results will help you decide how hot, cold, wet, or windy it might be!

Date:

Astronomy

Mar. 07, 2013 Rise Set
Actual Time 6:40 AM MST 6:14 PM MST
Civil Twilight 6:13 AM MST 6:41 PM MST
Nautical Twilight 5:41 AM MST 7:13 PM MST
Astronomical Twilight 5:08 AM MST 7:46 PM MST
Moon 3:45 AM MST (3/7) 2:02 PM MST (3/7)
Length of Visible Light 12h 28m
Length of Day
11h 33m
Waning Crescent, 19% of the Moon is Illuminated
Mar 7
Waning Crescent
Mar 11
New
Mar 19
First Quarter
Mar 27
Full
Apr 2
Last Quarter

Hourly Weather History & Observations

Time (MST) Temp. Windchill Dew Point Humidity Pressure Visibility Wind Dir Wind Speed Gust Speed Precip Events Conditions
12:54 AM 34.0 °F 26.6 °F 25.0 °F 70% 29.83 in 10.0 mi SSW 9.2 mph - N/A   Scattered Clouds
1:54 AM 32.0 °F 24.2 °F 26.1 °F 79% 29.86 in 10.0 mi SSW 9.2 mph - N/A   Clear
2:38 AM 33.8 °F 26.4 °F 28.4 °F 81% 29.92 in 10.0 mi WSW 9.2 mph - N/A   Mostly Cloudy
2:52 AM 33.8 °F 26.4 °F 28.4 °F 81% 29.92 in 10.0 mi WNW 9.2 mph - N/A   Overcast
2:54 AM 33.1 °F 23.4 °F 28.0 °F 82% 29.85 in 10.0 mi NW 13.8 mph 18.4 mph N/A   Overcast
3:10 AM 30.2 °F 18.5 °F 24.8 °F 80% 29.92 in 10.0 mi NNW 17.3 mph - N/A   Overcast
3:54 AM 30.0 °F 21.1 °F 21.9 °F 72% 29.92 in 10.0 mi NW 10.4 mph - N/A   Overcast
4:09 AM 30.2 °F 21.9 °F 21.2 °F 69% 29.95 in 10.0 mi NW 9.2 mph - N/A   Overcast
4:54 AM 28.9 °F 21.1 °F 21.0 °F 72% 29.94 in 10.0 mi NW 8.1 mph - N/A   Overcast
5:13 AM 30.2 °F 23.4 °F 19.4 °F 64% 29.97 in 10.0 mi WNW 6.9 mph - N/A   Overcast
5:46 AM 30.2 °F 24.3 °F 19.4 °F 64% 29.99 in 10.0 mi West 5.8 mph - N/A   Overcast
5:54 AM 30.0 °F 25.2 °F 19.0 °F 64% 29.97 in 10.0 mi West 4.6 mph - N/A   Overcast
6:54 AM 28.0 °F 24.2 °F 19.9 °F 72% 30.01 in 10.0 mi SW 3.5 mph - N/A   Overcast
7:54 AM 30.0 °F - 19.0 °F 64% 30.03 in 10.0 mi Calm Calm - N/A   Clear
8:54 AM 33.1 °F - 18.0 °F 54% 30.01 in 10.0 mi Calm Calm - N/A   Clear
9:54 AM 34.0 °F 29.8 °F 18.0 °F 52% 29.99 in 10.0 mi South 4.6 mph - N/A   Partly Cloudy
10:54 AM 36.0 °F - 19.0 °F 50% 29.97 in 10.0 mi Calm Calm - N/A   Clear
11:54 AM 39.0 °F 35.7 °F 19.0 °F 45% 29.97 in 10.0 mi Variable 4.6 mph - N/A   Clear
12:54 PM 42.1 °F 39.2 °F 19.9 °F 41% 29.92 in 10.0 mi East 4.6 mph - N/A   Clear
1:54 PM 45.0 °F 41.8 °F 21.0 °F 39% 29.88 in 10.0 mi Variable 5.8 mph - N/A   Clear
2:54 PM 46.9 °F - 21.0 °F 36% 29.85 in 10.0 mi North 6.9 mph - N/A   Clear
3:54 PM 48.9 °F - 16.0 °F 27% 29.84 in 10.0 mi SSW 13.8 mph 20.7 mph N/A   Clear
4:54 PM 46.9 °F - 14.0 °F 27% 29.87 in 10.0 mi SSW 18.4 mph - N/A   Mostly Cloudy
5:54 PM 41.0 °F 33.5 °F 21.9 °F 47% 29.91 in 10.0 mi NNW 13.8 mph - N/A   Clear
6:54 PM 36.0 °F 30.3 °F 23.0 °F 59% 29.96 in 10.0 mi NNW 6.9 mph - N/A   Clear
7:54 PM 37.0 °F 34.5 °F 23.0 °F 57% 29.94 in 10.0 mi ESE 3.5 mph - N/A   Mostly Cloudy
8:54 PM 35.1 °F 30.1 °F 21.9 °F 59% 29.94 in 10.0 mi SSE 5.8 mph - N/A   Scattered Clouds
9:54 PM 35.1 °F - 21.9 °F 59% 29.93 in 10.0 mi Calm Calm - N/A   Partly Cloudy
10:54 PM 36.0 °F - 21.9 °F 57% 29.91 in 10.0 mi Calm Calm - N/A   Mostly Cloudy
11:54 PM 32.0 °F - 21.9 °F 66% 29.90 in 10.0 mi Calm Calm - N/A   Clear